Location: Brachstadt
(48.6975°N, 10.6755°E)
Time: 07:40:46
(UTC+00:00)

HJ-1C - Pass Details

Date: 18 September 2020
Orbit: 432 x 443 km, 97.1° (Epoch: 24 October)

Event Time Altitude Azimuth Distance (km) Brightness Sun altitude
Rises 18:25:02 0° 174° (S) 2,396 6.9 -10.9°
Reaches altitude 10° 18:27:03 10° 179° (S) 1,534 5.9 -11.3°
Maximum altitude 18:30:18 59° 259° (W) 509 3.9 -11.8°
Drops below altitude 10° 18:33:35 10° 340° (NNW) 1,552 6.6 -12.3°
Sets 18:35:38 0° 345° (NNW) 2,427 7.6 -12.6°
